Regional Weather Roundup
Issued by NWS

Home | Current Version | Previous Version | Text Only | Print | Product List | Glossary Off
Versions: 1 2 3 4 5 6 7 8 9 10 11 12 13 14 15 16 17 18 19 20 21 22 23 24 25 26 27 28 29 30 31 32 33 34 35 36 37 38 39 40 41 42 43 44 45 46 47 48 49 50

000
ASUS45 KCYS 300810
RWRWY

WYOMING REGIONAL WEATHER ROUNDUP
NATIONAL WEATHER SERVICE CHEYENNE WY
200 AM MDT SUN APR 30 2017

NOTE:  "FAIR" INDICATES FEW OR NO CLOUDS BELOW 12,000 FEET
WITH NO SIGNIFICANT WEATHER AND/OR OBSTRUCTIONS TO VISIBILITY.

WYZ001-300900-
YELLOWSTONE NATIONAL PARK

CITY           SKY/WX    TMP DP  RH WIND       PRES   REMARKS
LK YELLOWSTONE   N/A     18  16  92 CALM      30.17F
W YELLOWSTONE  NOT AVBL

$$
WYZ002>013-054>058-071-098>099-300900-
NORTHERN WYOMING

CITY           SKY/WX    TMP DP  RH WIND       PRES   REMARKS
JACKSON        FAIR      28  25  86 CALM      30.17F
CODY           FAIR      35  27  72 N5        30.10F WCI  31
GREYBULL       FAIR      37  26  64 E7        30.13F WCI  32
WORLAND        FAIR      30  28  92 CALM      30.12F
SHERIDAN       FAIR      26  21  81 CALM      30.08F
BUFFALO        FAIR      33  15  47 SW8       30.09F WCI  26
GILLETTE       FAIR      29  19  66 SW9       30.12F WCI  20
HULETT         FAIR      28  21  74 MISG      30.13F
NEWCASTLE      FAIR      30  25  80 CALM      30.15F

$$
WYZ014>020-022>026-101>103-300900-
CENTRAL WYOMING

CITY           SKY/WX    TMP DP  RH WIND       PRES   REMARKS
BIG PINEY      FAIR      23  18  81 E3        30.19F
PINEDALE       FAIR      21  19  93 NW5       30.19F WCI  15
DUBOIS         FAIR      25  19  80 CALM      30.15F
LANDER         FAIR      26  19  74 SE3       30.14F
RIVERTON       FAIR      24  20  84 NW6       30.16F WCI  17
CASPER         FAIR      25  21  85 W6        30.15F WCI  18
DOUGLAS        FAIR      24  22  91 CALM      30.15F

$$
WYZ021-027>030-104>119-300900-
SOUTHERN WYOMING

CITY           SKY/WX    TMP DP  RH WIND       PRES   REMARKS
EVANSTON       FAIR      27  21  78 SW10      30.21F WCI  17
KEMMERER         N/A     30  23  74 NW5       30.20F WCI  25
FORT BRIDGER   FAIR      32  21  64 SW12      30.22F WCI  23
ROCK SPRINGS   FAIR      30  19  63 SW5       30.17F WCI  25
DIXON            N/A     24  20  85 E7        30.19S WCI  16
RAWLINS        FAIR      19  15  84 N3        30.16F
SARATOGA       FAIR      21  21 100 E6        30.16F WCI  14
LARAMIE        FAIR      14  10  84 S6        30.11F WCI   5
CHEYENNE       FAIR      27  16  63 NW14G22   30.09F WCI  16
TORRINGTON     FAIR      29  24  82 NW8       30.10F WCI  21
PINE BLUFFS    FAIR      28  23  80 NW9       30.09F WCI  20

$$



USA.gov is the U.S. government's official web portal to all federal, state and local government web resources and services.